User: anonymous   Login
Location: Caltech
(34.1382°N, 118.1253°W)
Time: 18:30:17
(UTC-07:00)
Language:

SPOT 1/Viking Rocket - Orbit

View from above orbital plane
View from above orbital plane
View from above satellite
View from above satellite

Ground track
Ground track

The orbit data is extracted from the following two-line orbital elements,

1 16615U 86019C   18170.21190208  .00000004  00000-0  17996-4 0  9993
2 16615  98.5667 238.6162 0012585  48.6926  16.2258 14.31713409692011
Epoch (UTC): 19 June 2018 05:05:08
Eccentricity: 0.0012585
inclination: 98.5667°
perigee height: 777 km
apogee height: 795 km
right ascension of ascending node: 238.6162°
argument of perigee: 48.6926°
revolutions per day: 14.31713409
mean anomaly at epoch: 16.2258°
orbit number at epoch: 69201

The dashed part of the orbit path shows where the satellite is in the earth's shadow,  

DLR